Flag for Switzerland Weather past 2 weeks in Locarno, Ticino, Switzerland

Now
62 °F

Refreshingly cool.


Feels Like: 62 °F
Forecast: 37 / 56 °F
Wind: 3 mph from Northeast

Location: Locarno-Monti

Current Time: May 23, 2015 at 1:16:37 AM

Latest Report: May 23, 2015 at 12:00 AM


Visibility: N/A

Pressure: 29.93 "Hg

Humidity: 34%

Dew point: 33 °F

Location of LocarnoLocation

Historic Weather in Locarno — Graph

°F

Locarno temperature yesterday

Maximum temperature yesterday: 72 °F (at 1:00 PM)
Minimum temperature yesterday: 54 °F (at 5:00 AM)
Average temperature yesterday: 63 °F

Past Weeks' High & Low Weather Summary

 TemperatureHumidityPressure
High79 °F (May 14, 4:00 PM)99% (May 15, 7:00 PM)30.31 "Hg (May 15, 7:00 PM)
Low47 °F (May 21, 3:00 AM)21% (May 10, 5:00 PM)29.65 "Hg (May 15, 8:00 AM)
Average64 °F62%29.99 "Hg
* Reported May 7 10:00 PM — May 22 10:00 PM, Locarno, Weather by CustomWeather, © 2015

Note: Actual official high and low records may vary slightly from our data, if they occured in-between our weather recording intervals... More about our weather records

Advertising

Locarno weather history for previous 24 hours

 ConditionsComfort  
Time TempWeatherWind HumidityBarometerVisibility
10:00 PM
Fri, May 22
63 °FMild.3 mph33%29.94 "HgN/A
9:00 PM64 °FMild.2 mph32%29.93 "HgN/A
8:00 PM65 °FOvercast.8 mph28%29.93 "Hg31 mi
7:00 PM66 °FMild.7 mph28%29.92 "HgN/A
6:00 PM67 °FMild.3 mph29%29.91 "HgN/A
5:00 PM70 °FOvercast.6 mph31%29.89 "Hg25 mi
4:00 PM70 °FMild.7 mph26%29.89 "HgN/A
3:00 PM71 °FMild.9 mph29%29.90 "HgN/A
2:00 PM71 °FScattered clouds.7 mph32%29.93 "Hg34 mi
1:00 PM72 °FMild.7 mph30%29.94 "HgN/A
12:00 PM71 °FMild.8 mph27%29.96 "HgN/A
11:00 AM69 °FPassing clouds.5 mph33%29.98 "Hg34 mi
10:00 AM66 °FMild.8 mph37%30.01 "HgN/A
9:00 AM62 °FRefreshingly cool.6 mph39%30.03 "HgN/A
8:00 AM60 °FPassing clouds.3 mph37%30.05 "Hg22 mi
7:00 AM56 °FRefreshingly cool.6 mph45%30.06 "HgN/A
6:00 AM55 °FCool.5 mph44%30.07 "HgN/A
5:00 AM54 °FCool.2 mph44%30.07 "HgN/A
4:00 AM56 °FRefreshingly cool.6 mph40%30.07 "HgN/A
3:00 AM56 °FRefreshingly cool.5 mph42%30.08 "HgN/A
2:00 AM58 °FRefreshingly cool.1 mph38%30.09 "HgN/A
1:00 AM57 °FRefreshingly cool.2 mph39%30.09 "HgN/A
Weather by CustomWeather, © 2015

See weather overviewHow to use our weather pages